QPF
0.10 0.10 0.09 0.07 0.07 0.07 0.08 0.10 0.13 0.14 0.13 0.09 0.06 0.06 0.04 0.03 0.03 0.02 0.02 0.05 0.06 0.06 0.04 0.03 0.02 0.02 0.01 0.01 0.01 0.02 0.02 0.03 0.04 0.04 0.03 0.04 0.04 0.04
0.04 0.04 0.04 0.03 0.04 0.04 0.05 0.05 0.06 0.08 0.10 0.09 0.07 0.07 0.06 0.05 0.04 0.03 0.02 0.02 0.03 0.05 0.06 0.04 0.03 0.03 0.02 0.01 0.01 0.01 0.02 0.03 0.05 0.07 0.06 0.05 0.05 0.05
0.04 0.03 0.02 0.02 0.04 0.04 0.05 0.04 0.05 0.05 0.07 0.07 0.07 0.06 0.04 0.04 0.04 0.04 0.04 0.03 0.02 0.02 0.03 0.05 0.04 0.04 0.04 0.03 0.02 0.02 0.02 0.03 0.05 0.08 0.09 0.09 0.08 0.07
0.07 0.05 0.03 0.03 0.04 0.04 0.05 0.05 0.06 0.06 0.07 0.06 0.05 0.06 0.05 0.03 0.03 0.03 0.03 0.02 0.02 0.03 0.03 0.03 0.05 0.06 0.04 0.03 0.02 0.02 0.03 0.03 0.04 0.06 0.08 0.09 0.08 0.08
0.05 0.06 0.05 0.06 0.05 0.05 0.05 0.06 0.07 0.07 0.07 0.07 0.06 0.05 0.05 0.04 0.03 0.03 0.03 0.02 0.02 0.02 0.02 0.02 0.04 0.06 0.04 0.02 0.01 0.01 0.01 0.01 0.02 0.03 0.06 0.07 0.06 0.06
0.03 0.03 0.05 0.06 0.07 0.06 0.06 0.06 0.05 0.06 0.07 0.06 0.05 0.05 0.04 0.04 0.04 0.04 0.04 0.03 0.02 0.01 0.02 0.02 0.02 0.04 0.04 0.03 0.03 0.03 0.02 0.02 0.02 0.02 0.03 0.04 0.05 0.05
0.02 0.02 0.02 0.03 0.05 0.07 0.07 0.06 0.05 0.04 0.05 0.06 0.06 0.05 0.04 0.04 0.05 0.05 0.05 0.04 0.03 0.02 0.02 0.02 0.02 0.03 0.06 0.08 0.07 0.06 0.06 0.05 0.04 0.03 0.03 0.03 0.02 0.03
0.03 0.02 0.01 0.01 0.03 0.05 0.06 0.07 0.07 0.06 0.06 0.07 0.07 0.06 0.05 0.04 0.04 0.05 0.05 0.05 0.04 0.03 0.03 0.02 0.02 0.03 0.04 0.05 0.08 0.08 0.07 0.06 0.06 0.05 0.04 0.03 0.02 0.02
0.03 0.02 0.01 0.01 0.02 0.02 0.04 0.07 0.08 0.08 0.07 0.06 0.06 0.06 0.05 0.04 0.05 0.05 0.05 0.04 0.04 0.03 0.04 0.03 0.02 0.02 0.02 0.02 0.03 0.05 0.06 0.06 0.05 0.04 0.03 0.03 0.02 0.02
0.03 0.02 0.03 0.03 0.03 0.03 0.03 0.04 0.07 0.08 0.08 0.05 0.05 0.05 0.05 0.05 0.05 0.05 0.05 0.05 0.04 0.03 0.04 0.03 0.03 0.03 0.02 0.02 0.02 0.02 0.03 0.04 0.05 0.04 0.03 0.03 0.03 0.03
0.03 0.04 0.05 0.04 0.04 0.04 0.04 0.04 0.05 0.06 0.07 0.07 0.06 0.05 0.06 0.06 0.05 0.04 0.04 0.04 0.04 0.03 0.03 0.03 0.03 0.02 0.02 0.02 0.02 0.02 0.02 0.02 0.03 0.03 0.03 0.02 0.03 0.03
0.03 0.04 0.05 0.05 0.05 0.05 0.05 0.04 0.03 0.04 0.05 0.07 0.07 0.07 0.07 0.06 0.05 0.04 0.03 0.03 0.03 0.03 0.03 0.03 0.03 0.04 0.03 0.03 0.03 0.03 0.03 0.03 0.02 0.02 0.02 0.02 0.03 0.02
0.04 0.05 0.05 0.05 0.04 0.04 0.04 0.03 0.04 0.04 0.05 0.06 0.06 0.08 0.09 0.08 0.06 0.05 0.04 0.04 0.03 0.03 0.03 0.04 0.03 0.04 0.04 0.03 0.03 0.03 0.04 0.04 0.04 0.04 0.03 0.03 0.02 0.02
0.03 0.03 0.03 0.02 0.02 0.02 0.02 0.03 0.04 0.05 0.06 0.06 0.06 0.06 0.06 0.07 0.08 0.08 0.07 0.06 0.05 0.04 0.03 0.03 0.03 0.04 0.03 0.02 0.03 0.03 0.04 0.05 0.05 0.05 0.04 0.05 0.04 0.02
0.02 0.02 0.02 0.01 0.01 0.01 0.02 0.03 0.03 0.03 0.04 0.04 0.04 0.04 0.03 0.03 0.04 0.06 0.08 0.09 0.09 0.08 0.06 0.04 0.04 0.05 0.05 0.04 0.03 0.04 0.05 0.06 0.06 0.05 0.04 0.05 0.05 0.03
0.01 0.01 0.01 0.01 0.01 0.02 0.02 0.04 0.05 0.04 0.03 0.03 0.03 0.03 0.03 0.03 0.03 0.03 0.03 0.04 0.04 0.05 0.04 0.04 0.06 0.07 0.08 0.06 0.06 0.06 0.06 0.07 0.06 0.06 0.04 0.04 0.05 0.02
0.01 0.01 0.01 0.01 0.01 0.02 0.02 0.04 0.06 0.06 0.04 0.02 0.02 0.03 0.03 0.03 0.02 0.03 0.04 0.04 0.04 0.04 0.04 0.03 0.04 0.06 0.06 0.07 0.09 0.10 0.10 0.09 0.07 0.05 0.04 0.04 0.06 0.03
0.01 0.00 0.01 0.01 0.02 0.02 0.03 0.03 0.03 0.04 0.04 0.03 0.03 0.02 0.02 0.02 0.03 0.03 0.04 0.04 0.04 0.04 0.04 0.04 0.04 0.04 0.04 0.04 0.05 0.08 0.09 0.08 0.07 0.06 0.04 0.04 0.06 0.05
0.00 0.01 0.01 0.01 0.01 0.01 0.02 0.03 0.04 0.03 0.02 0.02 0.03 0.02 0.03 0.03 0.02 0.02 0.02 0.03 0.03 0.04 0.04 0.05 0.05 0.05 0.05 0.04 0.04 0.04 0.05 0.06 0.08 0.07 0.04 0.03 0.04 0.06
0.01 0.02 0.02 0.01 0.01 0.01 0.02 0.02 0.03 0.04 0.03 0.02 0.02 0.01 0.02 0.02 0.02 0.02 0.02 0.03 0.03 0.03 0.04 0.05 0.05 0.07 0.07 0.05 0.04 0.03 0.03 0.04 0.06 0.07 0.06 0.05 0.04 0.06
0.01 0.01 0.02 0.02 0.01 0.01 0.01 0.02 0.03 0.03 0.03 0.03 0.02 0.01 0.01 0.01 0.02 0.02 0.02 0.02 0.03 0.03 0.05 0.05 0.04 0.05 0.06 0.07 0.05 0.03 0.03 0.04 0.05 0.06 0.07 0.05 0.04 0.05
0.01 0.01 0.01 0.01 0.01 0.01 0.01 0.02 0.02 0.03 0.03 0.03 0.03 0.01 0.01 0.01 0.01 0.02 0.02 0.03 0.03 0.03 0.04 0.05 0.07 0.08 0.08 0.07 0.05 0.04 0.04 0.04 0.04 0.05 0.06 0.05 0.04 0.04
0.01 0.01 0.01 0.02 0.01 0.01 0.01 0.02 0.02 0.03 0.03 0.03 0.03 0.02 0.01 0.01 0.02 0.02 0.02 0.02 0.03 0.03 0.03 0.03 0.04 0.08 0.11 0.11 0.10 0.08 0.06 0.05 0.05 0.04 0.05 0.04 0.04 0.04
MSLP
1007.88 1007.86 1007.85 1007.84 1007.79 1007.70 1007.55 1007.35 1007.12 1006.87 1006.63 1006.42 1006.27 1006.20 1006.20 1006.27 1006.41 1006.62 1006.90 1007.23 1007.64 1008.10 1008.63 1009.23 1009.87 1010.55 1011.26 1011.96 1012.65 1013.30 1013.91 1014.47 1015.00 1015.48 1015.94 1016.36 1016.77 1017.15
1007.20 1007.11 1007.05 1007.00 1006.94 1006.86 1006.76 1006.62 1006.44 1006.25 1006.06 1005.88 1005.73 1005.62 1005.57 1005.58 1005.65 1005.80 1006.03 1006.34 1006.74 1007.24 1007.82 1008.48 1009.21 1009.98 1010.77 1011.55 1012.30 1013.01 1013.65 1014.24 1014.77 1015.25 1015.69 1016.10 1016.47 1016.82
1006.54 1006.40 1006.31 1006.24 1006.19 1006.14 1006.09 1006.01 1005.90 1005.78 1005.64 1005.49 1005.36 1005.24 1005.16 1005.13 1005.16 1005.27 1005.46 1005.75 1006.15 1006.65 1007.26 1007.95 1008.72 1009.53 1010.36 1011.17 1011.95 1012.68 1013.34 1013.93 1014.46 1014.93 1015.35 1015.73 1016.08 1016.40
1005.93 1005.78 1005.67 1005.60 1005.57 1005.56 1005.55 1005.53 1005.49 1005.42 1005.34 1005.24 1005.13 1005.04 1004.96 1004.92 1004.94 1005.03 1005.21 1005.49 1005.87 1006.37 1006.97 1007.65 1008.40 1009.20 1010.01 1010.81 1011.57 1012.28 1012.93 1013.51 1014.03 1014.49 1014.90 1015.27 1015.61 1015.93
1005.42 1005.26 1005.15 1005.10 1005.09 1005.10 1005.13 1005.15 1005.16 1005.14 1005.10 1005.05 1004.98 1004.92 1004.87 1004.86 1004.91 1005.02 1005.20 1005.48 1005.86 1006.33 1006.89 1007.53 1008.22 1008.95 1009.70 1010.44 1011.14 1011.81 1012.42 1012.98 1013.49 1013.95 1014.37 1014.75 1015.11 1015.43
1005.00 1004.85 1004.76 1004.72 1004.72 1004.75 1004.79 1004.82 1004.85 1004.85 1004.83 1004.81 1004.78 1004.76 1004.77 1004.82 1004.91 1005.07 1005.29 1005.58 1005.96 1006.40 1006.91 1007.47 1008.08 1008.71 1009.36 1010.01 1010.64 1011.24 1011.81 1012.35 1012.86 1013.34 1013.79 1014.21 1014.60 1014.97
1004.67 1004.54 1004.46 1004.42 1004.42 1004.44 1004.46 1004.48 1004.48 1004.46 1004.45 1004.43 1004.42 1004.45 1004.52 1004.63 1004.80 1005.02 1005.30 1005.63 1006.01 1006.43 1006.89 1007.38 1007.89 1008.41 1008.95 1009.50 1010.04 1010.59 1011.13 1011.66 1012.19 1012.70 1013.20 1013.67 1014.12 1014.55
1004.38 1004.27 1004.21 1004.18 1004.16 1004.15 1004.12 1004.08 1004.02 1003.95 1003.89 1003.85 1003.85 1003.90 1004.02 1004.20 1004.45 1004.75 1005.10 1005.48 1005.88 1006.29 1006.71 1007.13 1007.56 1007.99 1008.43 1008.90 1009.38 1009.88 1010.41 1010.96 1011.51 1012.08 1012.63 1013.17 1013.69 1014.17
1004.11 1004.04 1003.99 1003.96 1003.92 1003.86 1003.76 1003.64 1003.49 1003.33 1003.19 1003.10 1003.07 1003.12 1003.27 1003.51 1003.82 1004.20 1004.62 1005.05 1005.49 1005.91 1006.31 1006.69 1007.06 1007.43 1007.82 1008.23 1008.68 1009.17 1009.70 1010.28 1010.88 1011.49 1012.11 1012.71 1013.27 1013.79
1003.86 1003.82 1003.80 1003.77 1003.71 1003.59 1003.42 1003.20 1002.95 1002.69 1002.45 1002.27 1002.19 1002.22 1002.37 1002.63 1002.99 1003.42 1003.90 1004.39 1004.87 1005.31 1005.72 1006.10 1006.45 1006.79 1007.15 1007.55 1008.00 1008.50 1009.07 1009.68 1010.32 1010.98 1011.64 1012.27 1012.85 1013.38
1003.63 1003.65 1003.66 1003.65 1003.57 1003.42 1003.18 1002.87 1002.52 1002.15 1001.81 1001.54 1001.39 1001.37 1001.49 1001.75 1002.13 1002.59 1003.11 1003.64 1004.15 1004.63 1005.06 1005.45 1005.81 1006.17 1006.54 1006.95 1007.42 1007.96 1008.55 1009.19 1009.87 1010.55 1011.22 1011.84 1012.41 1012.90
1003.47 1003.55 1003.61 1003.62 1003.55 1003.38 1003.11 1002.74 1002.30 1001.85 1001.43 1001.07 1000.84 1000.76 1000.84 1001.07 1001.44 1001.91 1002.43 1002.98 1003.52 1004.02 1004.47 1004.89 1005.28 1005.66 1006.06 1006.51 1007.01 1007.57 1008.19 1008.84 1009.52 1010.19 1010.83 1011.41 1011.92 1012.35
1003.41 1003.55 1003.66 1003.72 1003.68 1003.52 1003.24 1002.85 1002.38 1001.88 1001.39 1000.98 1000.69 1000.56 1000.59 1000.78 1001.11 1001.55 1002.07 1002.61 1003.14 1003.65 1004.12 1004.55 1004.96 1005.37 1005.79 1006.26 1006.79 1007.36 1007.98 1008.63 1009.27 1009.90 1010.47 1010.98 1011.40 1011.73
1003.45 1003.64 1003.81 1003.92 1003.93 1003.81 1003.55 1003.18 1002.73 1002.22 1001.73 1001.30 1000.98 1000.81 1000.80 1000.95 1001.24 1001.64 1002.11 1002.61 1003.12 1003.61 1004.06 1004.49 1004.91 1005.32 1005.76 1006.23 1006.75 1007.31 1007.91 1008.51 1009.10 1009.66 1010.14 1010.55 1010.86 1011.09
1003.58 1003.81 1004.03 1004.18 1004.25 1004.18 1003.99 1003.68 1003.27 1002.82 1002.36 1001.95 1001.64 1001.47 1001.43 1001.55 1001.79 1002.14 1002.55 1003.00 1003.46 1003.90 1004.31 1004.71 1005.10 1005.49 1005.91 1006.36 1006.85 1007.37 1007.91 1008.45 1008.97 1009.43 1009.83 1010.14 1010.35 1010.48
1003.76 1004.01 1004.25 1004.45 1004.56 1004.56 1004.44 1004.21 1003.89 1003.52 1003.14 1002.79 1002.53 1002.37 1002.34 1002.44 1002.64 1002.94 1003.29 1003.67 1004.05 1004.42 1004.77 1005.11 1005.45 1005.79 1006.16 1006.56 1006.99 1007.45 1007.93 1008.40 1008.83 1009.21 1009.52 1009.74 1009.88 1009.94
1003.95 1004.18 1004.43 1004.64 1004.79 1004.85 1004.80 1004.66 1004.44 1004.17 1003.89 1003.63 1003.44 1003.33 1003.33 1003.42 1003.60 1003.84 1004.13 1004.44 1004.74 1005.03 1005.30 1005.56 1005.82 1006.09 1006.39 1006.73 1007.09 1007.48 1007.89 1008.28 1008.65 1008.96 1009.20 1009.37 1009.47 1009.50
1004.12 1004.32 1004.54 1004.75 1004.91 1005.00 1005.01 1004.95 1004.82 1004.65 1004.47 1004.32 1004.20 1004.16 1004.19 1004.29 1004.45 1004.66 1004.89 1005.12 1005.35 1005.55 1005.74 1005.92 1006.10 1006.29 1006.52 1006.78 1007.07 1007.40 1007.74 1008.07 1008.38 1008.65 1008.86 1009.01 1009.09 1009.12
1004.30 1004.45 1004.63 1004.81 1004.96 1005.06 1005.10 1005.09 1005.03 1004.94 1004.85 1004.77 1004.73 1004.74 1004.81 1004.92 1005.07 1005.25 1005.43 1005.60 1005.76 1005.89 1006.00 1006.10 1006.21 1006.33 1006.49 1006.68 1006.92 1007.19 1007.47 1007.77 1008.05 1008.29 1008.49 1008.64 1008.74 1008.79
1004.54 1004.65 1004.77 1004.90 1005.02 1005.10 1005.15 1005.15 1005.13 1005.09 1005.05 1005.03 1005.04 1005.08 1005.17 1005.29 1005.43 1005.57 1005.72 1005.84 1005.94 1006.01 1006.06 1006.11 1006.16 1006.23 1006.33 1006.47 1006.66 1006.89 1007.14 1007.40 1007.66 1007.90 1008.10 1008.26 1008.38 1008.45
1004.93 1004.99 1005.06 1005.15 1005.22 1005.26 1005.28 1005.28 1005.26 1005.23 1005.20 1005.20 1005.22 1005.27 1005.35 1005.46 1005.58 1005.70 1005.81 1005.90 1005.96 1006.00 1006.01 1006.02 1006.03 1006.06 1006.13 1006.23 1006.39 1006.58 1006.80 1007.04 1007.28 1007.51 1007.71 1007.87 1008.00 1008.08
1005.52 1005.55 1005.59 1005.62 1005.64 1005.64 1005.62 1005.59 1005.54 1005.48 1005.44 1005.41 1005.41 1005.45 1005.50 1005.58 1005.68 1005.77 1005.85 1005.91 1005.94 1005.96 1005.95 1005.94 1005.94 1005.95 1005.99 1006.07 1006.19 1006.35 1006.55 1006.76 1006.97 1007.17 1007.35 1007.50 1007.60 1007.67
1006.32 1006.34 1006.36 1006.36 1006.34 1006.30 1006.24 1006.15 1006.06 1005.96 1005.87 1005.80 1005.75 1005.74 1005.75 1005.79 1005.84 1005.90 1005.96 1006.00 1006.02 1006.03 1006.02 1006.00 1005.99 1006.00 1006.02 1006.08 1006.17 1006.30 1006.44 1006.61 1006.77 1006.93 1007.06 1007.16 1007.22 1007.25
Thickness
5726 5725 5724 5725 5726 5726 5726 5723 5719 5716 5718 5721 5722 5722 5721 5720 5718 5718 5718 5716 5716 5715 5714 5714 5714 5713 5713 5712 5712 5711 5710 5709 5708 5706 5705 5704 5702 5701
5719 5718 5718 5720 5720 5721 5721 5720 5718 5715 5714 5717 5717 5718 5715 5715 5713 5713 5713 5712 5711 5711 5710 5709 5709 5709 5709 5709 5708 5708 5707 5706 5705 5704 5703 5701 5700 5699
5714 5713 5712 5712 5714 5714 5714 5714 5713 5712 5709 5712 5712 5711 5709 5708 5708 5708 5708 5708 5709 5707 5706 5705 5705 5705 5705 5705 5704 5704 5703 5702 5701 5700 5699 5698 5697 5696
5707 5707 5707 5708 5706 5707 5707 5707 5706 5705 5704 5701 5703 5703 5702 5702 5702 5701 5703 5704 5704 5703 5702 5701 5701 5700 5700 5700 5699 5699 5698 5697 5696 5695 5695 5694 5693 5691
5702 5701 5701 5700 5699 5700 5699 5700 5700 5701 5699 5696 5695 5696 5696 5696 5695 5695 5696 5696 5698 5699 5697 5696 5696 5695 5695 5695 5694 5694 5693 5692 5691 5690 5689 5688 5687 5686
5697 5696 5695 5694 5693 5693 5693 5692 5693 5692 5692 5691 5689 5689 5688 5688 5687 5687 5687 5689 5690 5692 5691 5691 5691 5690 5690 5690 5689 5688 5688 5687 5685 5684 5683 5682 5682 5681
5692 5691 5690 5687 5685 5684 5686 5685 5685 5685 5685 5684 5682 5681 5680 5678 5678 5679 5678 5680 5681 5683 5684 5685 5686 5686 5686 5684 5683 5682 5681 5680 5679 5678 5677 5677 5676 5675
5684 5683 5683 5682 5679 5676 5675 5674 5674 5675 5676 5675 5674 5672 5670 5670 5670 5670 5670 5671 5671 5674 5674 5676 5679 5680 5680 5680 5678 5676 5675 5674 5673 5672 5671 5670 5670 5669
5677 5676 5677 5677 5673 5671 5669 5668 5667 5666 5665 5665 5666 5664 5663 5664 5662 5663 5662 5663 5663 5666 5665 5666 5669 5670 5672 5673 5671 5668 5667 5666 5666 5665 5664 5663 5663 5663
5671 5669 5668 5666 5666 5662 5662 5663 5662 5661 5659 5658 5658 5658 5658 5657 5656 5656 5655 5655 5655 5657 5657 5656 5659 5660 5664 5664 5661 5660 5659 5659 5658 5658 5657 5657 5657 5657
5664 5663 5660 5658 5654 5651 5652 5653 5653 5653 5652 5650 5649 5649 5648 5648 5648 5648 5648 5648 5648 5650 5651 5649 5651 5652 5654 5655 5654 5652 5652 5651 5651 5650 5650 5650 5650 5650
5657 5656 5652 5649 5645 5642 5643 5644 5644 5645 5645 5645 5643 5643 5642 5642 5641 5641 5642 5641 5642 5643 5644 5642 5643 5644 5645 5647 5648 5647 5645 5644 5644 5643 5643 5643 5642 5644
5650 5649 5647 5640 5637 5634 5633 5635 5635 5634 5636 5637 5639 5639 5638 5637 5636 5635 5635 5635 5635 5636 5637 5635 5635 5636 5636 5638 5640 5641 5641 5641 5639 5638 5637 5636 5636 5636
5640 5640 5638 5631 5629 5627 5626 5626 5625 5624 5629 5630 5631 5631 5631 5630 5630 5630 5629 5627 5627 5628 5628 5627 5627 5627 5628 5630 5632 5634 5635 5635 5634 5634 5633 5631 5630 5629
5630 5627 5624 5622 5622 5623 5621 5619 5618 5620 5622 5623 5623 5623 5623 5622 5621 5620 5620 5620 5619 5619 5620 5618 5619 5620 5621 5622 5624 5626 5626 5627 5627 5628 5627 5626 5626 5625
5621 5619 5616 5615 5615 5614 5615 5615 5615 5615 5614 5614 5614 5614 5614 5614 5613 5613 5613 5614 5613 5613 5613 5611 5611 5612 5614 5616 5617 5618 5620 5619 5620 5620 5620 5620 5620 5620
5611 5613 5614 5613 5612 5611 5611 5610 5608 5608 5607 5607 5607 5606 5605 5605 5605 5605 5605 5606 5606 5606 5606 5605 5605 5605 5606 5607 5609 5611 5612 5612 5612 5613 5611 5613 5614 5614
5604 5608 5608 5606 5604 5604 5603 5602 5601 5600 5599 5598 5598 5598 5597 5598 5597 5597 5598 5598 5598 5599 5599 5598 5598 5598 5598 5600 5599 5602 5603 5604 5605 5605 5605 5607 5607 5608
5600 5602 5600 5597 5595 5594 5594 5593 5592 5591 5590 5590 5590 5590 5590 5591 5592 5591 5591 5591 5591 5592 5592 5593 5592 5591 5592 5593 5594 5592 5595 5596 5597 5598 5599 5600 5600 5600
5597 5595 5592 5590 5587 5586 5585 5583 5583 5583 5583 5583 5583 5583 5584 5584 5585 5585 5586 5585 5586 5586 5585 5586 5586 5585 5585 5586 5587 5588 5586 5589 5590 5590 5592 5593 5592 5590
5592 5589 5586 5583 5581 5578 5576 5575 5574 5574 5574 5575 5575 5575 5576 5577 5577 5578 5578 5576 5578 5579 5579 5579 5578 5577 5580 5581 5582 5583 5582 5580 5581 5583 5585 5586 5587 5587
5585 5582 5579 5576 5573 5571 5569 5568 5567 5567 5567 5567 5567 5567 5568 5569 5570 5571 5571 5572 5573 5573 5573 5574 5573 5573 5574 5574 5576 5577 5577 5576 5574 5574 5574 5576 5579 5582
5577 5574 5571 5569 5566 5564 5562 5561 5559 5559 5558 5558 5558 5559 5560 5561 5562 5563 5564 5565 5566 5566 5567 5567 5568 5568 5569 5570 5571 5572 5571 5571 5573 5572 5571 5569 5569 5570